Regional Weather Roundup
Issued by NWS Sioux Falls, SD

Home | Current Version | Previous Version | Text Only | Print | Product List | Glossary On
Versions: 1 2 3 4 5 6 7 8 9 10 11 12 13 14 15 16 17 18 19 20 21 22 23 24 25 26 27 28 29 30 31 32 33 34 35 36 37 38 39 40 41 42 43 44 45 46 47 48 49 50
262
ASUS43 KFSD 251810
RWRFSD

WEATHER ROUNDUP FOR SE SOUTH DAKOTA/SW MINNESOTA/NW IOWA
NATIONAL WEATHER SERVICE SIOUX FALLS SD
100 PM CDT MON JUL 25 2016

NOTE: "FAIR" INDICATES FEW OR NO CLOUDS BELOW 12,000 FEET WITH NO
SIGNIFICANT WEATHER AND OR OBSTRUCTIONS TO VISIBILITY.


SDZ038>040-050-052>070-251900-
SOUTHEAST SOUTH DAKOTA

CITY           SKY/WX    TMP DP  RH WIND       PRES   REMARKS
BROOKINGS      SUNNY     82  61  48 SW13      30.12S
CHAMBERLAIN    SUNNY     89  59  36 S16G23    30.08F
6HR MIN TEMP:  60; 6HR MAX TEMP:  89;

HURON          SUNNY     86  58  38 S17       30.07F
6HR MIN TEMP:  62; 6HR MAX TEMP:  86;

MADISON        FAIR      81  63  54 S13       30.13F
MITCHELL       SUNNY     86  60  41 S12G20    30.09F
6HR MIN TEMP:  62; 6HR MAX TEMP:  86;

SIOUX FALLS    MOSUNNY   83  58  42 SW9       30.12S
6HR MIN TEMP:  64; 6HR MAX TEMP:  83;

WINNER         FAIR      92  43  18 S17       30.09F
YANKTON        SUNNY     84  57  39 S10       30.10F
$$

MNZ071-072-080-081-089-090-097-098-251900-
SOUTHWEST MINNESOTA

CITY           SKY/WX    TMP DP  RH WIND       PRES   REMARKS
FAIRMONT       SUNNY     81  61  50 CALM      30.11S
JACKSON        SUNNY     81  59  47 CALM      30.13F
LUVERNE        SUNNY     81  59  47 S6        30.14S
MARSHALL       SUNNY     82  63  52 W6        30.10F
6HR MIN TEMP:  63; 6HR MAX TEMP:  83;

MONTEVIDEO     SUNNY     84  64  51 W7        30.10F
REDWOOD FALLS  SUNNY     83  59  44 CALM      30.09S
TRACY          SUNNY     82  66  57 SW7       30.12S
WINDOM         SUNNY     82  61  47 S6        30.12S
WORTHINGTON    SUNNY     81  63  54 VRB6      30.14S
$$

IAZ001>003-012>014-020>022-031-032-NEZ013-014-SDZ071-251900-
NORTHWEST IOWA

CITY           SKY/WX    TMP DP  RH WIND       PRES   REMARKS
CHEROKEE       SUNNY     83  57  40 S3        30.13S
DENISON        SUNNY     82  63  51 CALM      30.12F
ESTHERVILLE    SUNNY     80  64  58 S3        30.12F
LE MARS        SUNNY     84  64  51 S8        30.13F
SHELDON        SUNNY     82  61  47 VRB5      30.12S
SIOUX CITY     SUNNY     85  61  44 SE6       30.12F
6HR MIN TEMP:  63; 6HR MAX TEMP:  86;

SPENCER        SUNNY     82  57  42 CALM      30.12F
6HR MIN TEMP:  60; 6HR MAX TEMP:  83;

STORM LAKE       N/A     82  57  42 CALM      30.15R
$$

ABBREVIATIONS USED IN REMARKS
   TC - TEMPERATURE IN CELSIUS
  WCI - WIND CHILL INDEX
   HX - HEAT INDEX
  VSB - VISIBILITY





USA.gov is the U.S. government's official web portal to all federal, state and local government web resources and services.